Pagina principale
METAR-TAF:

METAR-TAF

Aeroporti :

Vereeniging, Sudafrica

latitudine: 26-34-29S, longitudine: 027-57-45E, altezza: 1483 m

Osservazione

Il bollettino è stato emesso 29 minuti fa, alle 07:00 UTC
Vento 6 kt da nord-est
Temperature 12°C
Umidità 47%
Pressione 1030 hPa

METAR: FAVV 200700Z AUTO 04006KT //// // ////// 12/01 Q1030

Ora: 09:29 (07:29 UTC)


TAF: mancante

Osservazioni e previsioni meteorologiche di più di 4000 aeroporti (messaggi METAR e TAF).

Le stazioni disponibili sono rappresentate dai dischi gialli e rossi sulla carta.

Puntare il mouse per vedere il nome della stazione.

Clicca sopra per visualizzare le osservazioni e previsioni meteorologiche.

Per cambiare la mappa : fare clic sui pulsanti verdi con una croce nera per ingrandire, il pulsante verde con un trattino per diminuire, o sulla freccia verde per le mappe adiacenti.


METAR-TAF: